Weather History for Hereford, TX

Change the Weather History Date:

Monday, December 31, 2012

  Actual Average (KAMA) Record (KAMA)
Temperature  
Mean Temperature 28 °F 36 °F  
Max Temperature 33 °F 49 °F 75 °F (1909)
Min Temperature 23 °F 23 °F -2 °F (1918)
Degree Days  
Heating Degree Days 37 29  
Month to date heating degree days 873  
Since 1 July heating degree days 1717  
Cooling Degree Days 0 0  
Month to date cooling degree days 0  
Year to date cooling degree days 1399  
Moisture  
Dew Point 28 °F    
Average Humidity 89    
Maximum Humidity 100    
Minimum Humidity 75    
Precipitation  
Precipitation 0.03 in 0.02 in 0.30 in (1947)
Month to date precipitation 0.71  
Year to date precipitation 20.36  
Snow  
Snow 0.00 in 0.10 in 3.10 in (1947)
Month to date snowfall 3.7  
Since 1 July snowfall 6.4  
Snow Depth -    
Sea Level Pressure  
Sea Level Pressure 29.96 in    
Wind  
Wind Speed - (North)    
Max Wind Speed -    
Max Gust Speed -    
Visibility 8 miles    
Events      
T = Trace of Precipitation, MM = Missing Value Source: NWS Daily Summary

Daily Weather History Graph

Daily Weather History Graph

Search for Another Location

Airport:

Trip Planner

Search our weather history database for the weather conditions in past years. The results will help you decide how hot, cold, wet, or windy it might be!

Date:

Astronomy

Dec. 31, 2012 Rise Set
Actual Time 7:56 AM CST 5:48 PM CST
Civil Twilight 7:28 AM CST 6:16 PM CST
Nautical Twilight 6:57 AM CST 6:48 PM CST
Astronomical Twilight 6:26 AM CST 7:18 PM CST
Moon 9:12 PM CST (12/31) 9:47 AM CST (12/31)
Length of Visible Light 10h 47m
Length of Day
9h 51m
Waning Gibbous, 90% of the Moon is Illuminated
Dec 31
Waning Gibbous
Jan 4
Last Quarter
Jan 11
New
Jan 18
First Quarter
Jan 26
Full

Hourly Weather History & Observations

Time (CST) Temp. Dew Point Humidity Pressure Visibility Wind Dir Wind Speed Gust Speed Precip Events Conditions
12:15 AM 33.8 °F 30.2 °F 87% 30.00 in 7.0 mi North - - N/A   Overcast
12:35 AM 33.8 °F 30.2 °F 87% 29.97 in 5.0 mi North - - N/A   Overcast
12:55 AM 32.0 °F 30.2 °F 93% 29.95 in 7.0 mi North - - 0.02 in   Overcast
1:15 AM 32.0 °F 30.2 °F 93% 29.95 in 7.0 mi North - - N/A   Overcast
1:35 AM 32.0 °F 30.2 °F 93% 29.93 in 7.0 mi North - - N/A   Overcast
1:55 AM 32.0 °F 30.2 °F 93% 29.95 in 7.0 mi North - - N/A   Overcast
2:15 AM 32.0 °F 30.2 °F 93% 29.93 in 7.0 mi North - - 0.01 in   Overcast
2:35 AM 32.0 °F 30.2 °F 93% 29.90 in 10.0 mi North - - 0.01 in   Overcast
2:55 AM 32.0 °F 30.2 °F 93% 29.93 in 7.0 mi North - - 0.01 in   Overcast
3:15 AM 32.0 °F 30.2 °F 93% 29.91 in 5.0 mi North - - N/A   Overcast
3:35 AM 32.0 °F 30.2 °F 93% 29.91 in 10.0 mi North - - N/A   Overcast
3:55 AM 32.0 °F 30.2 °F 93% 29.91 in 10.0 mi North - - N/A   Overcast
4:15 AM 32.0 °F 30.2 °F 93% 29.91 in 7.0 mi North - - N/A   Overcast
4:35 AM 32.0 °F 32.0 °F 100% 29.90 in 2.0 mi North - - N/A   Overcast
4:55 AM 32.0 °F 32.0 °F 100% 29.90 in 1.5 mi North - - N/A   Overcast
5:15 AM 32.0 °F 32.0 °F 100% 29.88 in 1.5 mi North - - N/A   Overcast
5:35 AM 32.0 °F 32.0 °F 100% 29.88 in 1.5 mi North - - N/A   Overcast
5:55 AM 32.0 °F 32.0 °F 100% 29.88 in 2.0 mi North - - N/A   Overcast
6:15 AM 32.0 °F 32.0 °F 100% 29.88 in 5.0 mi North - - N/A   Overcast
6:55 AM 32.0 °F 32.0 °F 100% 29.89 in 7.0 mi North - - N/A   Overcast
7:15 AM 32.0 °F 32.0 °F 100% 29.89 in 7.0 mi North - - N/A   Overcast
7:35 AM - - N/A% 29.90 in 5.0 mi North - - N/A   Haze
7:55 AM - - N/A% 29.91 in 5.0 mi North - - N/A   Haze
8:15 AM 33.8 °F 32.0 °F 93% 29.91 in 4.0 mi North - - N/A   Overcast
8:35 AM 33.8 °F 32.0 °F 93% 29.92 in 4.0 mi North - - N/A   Overcast
8:55 AM 33.8 °F 32.0 °F 93% 29.93 in 4.0 mi North - - N/A   Overcast
9:15 AM 33.8 °F 32.0 °F 93% 29.93 in 4.0 mi North - - N/A   Overcast
9:35 AM 33.8 °F 32.0 °F 93% 29.93 in 3.0 mi North - - N/A   Overcast
9:55 AM 33.8 °F 32.0 °F 93% 29.94 in 2.5 mi North - - N/A   Overcast
10:15 AM 33.8 °F 32.0 °F 93% 29.95 in 2.5 mi North - - N/A   Overcast
10:35 AM 33.8 °F 32.0 °F 93% 29.96 in 2.5 mi North - - N/A   Overcast
10:55 AM 33.8 °F 32.0 °F 93% 29.96 in 5.0 mi North - - N/A   Overcast
11:15 AM 33.8 °F 32.0 °F 93% 29.96 in 7.0 mi North - - N/A   Overcast
11:35 AM 32.0 °F 30.2 °F 93% 29.95 in 10.0 mi North - - N/A   Overcast
11:55 AM 32.0 °F 30.2 °F 93% 29.95 in 10.0 mi North - - N/A   Overcast
12:15 PM 32.0 °F 30.2 °F 93% 29.94 in 10.0 mi North - - N/A   Overcast
12:35 PM 32.0 °F 30.2 °F 93% 29.93 in 10.0 mi North - - N/A   Overcast
12:55 PM 32.0 °F 30.2 °F 93% 29.93 in 10.0 mi North - - N/A   Overcast
1:15 PM 32.0 °F 30.2 °F 93% 29.93 in 10.0 mi North - - N/A   Overcast
1:35 PM 32.0 °F 30.2 °F 93% 29.93 in 10.0 mi North - - N/A   Overcast
1:55 PM 32.0 °F 30.2 °F 93% 29.92 in 10.0 mi North - - N/A   Overcast
2:15 PM 32.0 °F 28.4 °F 87% 29.93 in 10.0 mi North - - N/A   Overcast
2:35 PM 32.0 °F 28.4 °F 87% 29.93 in 10.0 mi North - - N/A   Overcast
2:55 PM 32.0 °F 28.4 °F 87% 29.93 in 10.0 mi North - - N/A   Overcast
3:15 PM 32.0 °F 28.4 °F 87% 29.94 in 10.0 mi North - - N/A   Overcast
3:35 PM 33.8 °F 28.4 °F 81% 29.93 in 10.0 mi North - - N/A   Mostly Cloudy
3:55 PM 32.0 °F 26.6 °F 80% 29.94 in 10.0 mi North - - N/A   Scattered Clouds
4:35 PM 32.0 °F 26.6 °F 80% 29.96 in 10.0 mi North - - N/A   Mostly Cloudy
4:55 PM 32.0 °F 26.6 °F 80% 29.96 in 10.0 mi North - - N/A   Mostly Cloudy
5:15 PM 32.0 °F 26.6 °F 80% 29.97 in 10.0 mi North - - N/A   Mostly Cloudy
5:35 PM 30.2 °F 26.6 °F 86% 29.98 in 10.0 mi North - - N/A   Mostly Cloudy
5:55 PM 30.2 °F 24.8 °F 80% 29.98 in 10.0 mi North - - N/A   Overcast
6:15 PM 30.2 °F 24.8 °F 80% 29.99 in 10.0 mi North - - N/A   Overcast
6:35 PM 30.2 °F 24.8 °F 80% 30.00 in 10.0 mi North - - N/A   Overcast
6:55 PM 30.2 °F 23.0 °F 75% 30.01 in 10.0 mi North - - N/A   Mostly Cloudy
7:15 PM 28.4 °F 23.0 °F 80% 30.02 in 10.0 mi North - - N/A   Mostly Cloudy
7:35 PM 28.4 °F 23.0 °F 80% 30.02 in 10.0 mi North - - N/A   Mostly Cloudy
7:55 PM 28.4 °F 23.0 °F 80% 30.02 in 10.0 mi North - - N/A   Scattered Clouds
8:15 PM 26.6 °F 23.0 °F 86% 30.04 in 10.0 mi North - - N/A   Clear
8:35 PM 26.6 °F 23.0 °F 86% 30.04 in 10.0 mi North - - N/A   Scattered Clouds
9:15 PM 26.6 °F 21.2 °F 80% 30.05 in 10.0 mi North - - N/A   Scattered Clouds
9:35 PM 26.6 °F 21.2 °F 80% 30.06 in 10.0 mi North - - N/A   Scattered Clouds
9:55 PM 24.8 °F 19.4 °F 80% 30.07 in 10.0 mi North - - N/A   Clear
10:15 PM 24.8 °F 19.4 °F 80% 30.07 in 10.0 mi North - - N/A   Clear
10:35 PM 24.8 °F 19.4 °F 80% 30.07 in 10.0 mi North - - N/A   Clear
10:55 PM 23.0 °F 19.4 °F 86% 30.07 in 10.0 mi North - - N/A   Clear
11:15 PM 23.0 °F 19.4 °F 86% 30.06 in 10.0 mi North - - N/A   Clear
11:35 PM 23.0 °F 19.4 °F 86% 30.05 in 10.0 mi North - - N/A   Clear